Weather History for MZBZ - March, 2013

Change the Weather History Date:

Tuesday, March 12, 2013

  Actual Average Record
Temperature  
Mean Temperature 76 °F -  
Max Temperature 78 °F 86 °F 87 °F (2001)
Min Temperature 73 °F 72 °F 66 °F (1998)
Cooling Degree Days 10    
Growing Degree Days 26 (Base 50)    
Moisture  
Dew Point 73 °F    
Average Humidity 92    
Maximum Humidity 100    
Minimum Humidity 77    
Precipitation  
Precipitation 0.08 in 0.07 in - ()
Sea Level Pressure  
Sea Level Pressure 29.98 in    
Wind  
Wind Speed 7 mph ()    
Max Wind Speed 13 mph    
Max Gust Speed -    
Visibility 4.5 miles    
Events Rain    
Averages and records for this station are not official NWS values.
T = Trace of Precipitation, MM = Missing Value Source: Averaged Metar Reports

Daily Weather History Graph

Daily Weather History Graph

Search for Another Location

Airport or City:

Trip Planner

Search our weather history database for the weather conditions in past years. The results will help you decide how hot, cold, wet, or windy it might be!

Date:

Astronomy

Mar. 12, 2013 Rise Set
Actual Time 6:03 AM CST 6:02 PM CST
Civil Twilight 5:41 AM CST 6:24 PM CST
Nautical Twilight 5:16 AM CST 6:49 PM CST
Astronomical Twilight 4:51 AM CST 7:14 PM CST
Moon 6:23 AM CST (3/12) 6:58 PM CST (3/12)
Length of Visible Light 12h 42m
Length of Day
11h 59m
New Moon, 1% of the Moon is Illuminated
Mar 12
New Moon
Mar 19
First Quarter
Mar 27
Full
Apr 2
Last Quarter
Apr 10
New

Hourly Weather History & Observations

Time (CST) Temp. Dew Point Humidity Pressure Visibility Wind Dir Wind Speed Gust Speed Precip Events Conditions
12:00 AM 78 °F 74 °F 86% 29.93 in 12 mi WNW 3.5 mph - -   Partly Cloudy
3:00 AM 76 °F 73 °F 86% 29.90 in 9 mi NW 10.4 mph - - Rain Light Rain
5:00 AM 75.2 °F 73.4 °F 94% 29.92 in 6.2 mi WNW 5.8 mph - N/A   Mostly Cloudy
6:00 AM 74 °F 73 °F 94% 29.94 in 2 mi East 6.9 mph - - Rain Light Rain
6:00 AM 73.4 °F 73.4 °F 100% 29.92 in 2.5 mi West 6.9 mph - N/A Rain Rain
7:00 AM 73.4 °F 71.6 °F 94% 29.95 in 1.9 mi West 9.2 mph - N/A Rain Rain
7:05 AM 73.4 °F 71.6 °F 94% 29.98 in 0.7 mi West 8.1 mph - N/A Rain Heavy Rain
7:30 AM 73.4 °F 71.6 °F 94% 29.98 in 1.2 mi West 8.1 mph - N/A Rain Rain
8:00 AM 73.4 °F 71.6 °F 94% 29.98 in 0.7 mi WNW 8.1 mph - N/A Rain Heavy Rain
8:20 AM 73.4 °F 71.6 °F 94% 30.00 in 1.2 mi WNW 8.1 mph - N/A Rain Light Rain
9:00 AM 74 °F 73 °F 94% 30.02 in 2 mi WNW 8.1 mph - - Rain Light Rain
9:00 AM 73.4 °F 73.4 °F 100% 30.02 in 1.6 mi WNW 8.1 mph - N/A   Mostly Cloudy
9:30 AM 73.4 °F 73.4 °F 100% 30.03 in 0.9 mi WNW 6.9 mph - N/A Rain Heavy Rain
9:50 AM 73.4 °F 73.4 °F 100% 30.03 in 1.2 mi West 6.9 mph - N/A Rain Heavy Rain
10:00 AM 73.4 °F 73.4 °F 100% 30.03 in 1.2 mi West 5.8 mph - N/A Rain Rain
10:25 AM 73.4 °F 73.4 °F 100% 30.02 in 1.9 mi West 5.8 mph - N/A Rain Light Rain
11:00 AM 75.2 °F 73.4 °F 94% 30.02 in 2.2 mi West 4.6 mph - N/A   Mostly Cloudy
11:30 AM 75.2 °F 73.4 °F 94% 30.01 in 4.0 mi WNW 6.9 mph - N/A   Mostly Cloudy
12:00 PM 76 °F 74 °F 90% 30.01 in 4 mi WNW 5.8 mph - - Rain Light Rain
12:00 PM 75.2 °F 73.4 °F 94% 30.00 in 3.7 mi WNW 5.8 mph - N/A Rain Light Rain
1:00 PM 77.0 °F 73.4 °F 89% 29.98 in 5.0 mi NW 6.9 mph - N/A   Mostly Cloudy
2:00 PM 77.0 °F 73.4 °F 89% 29.96 in 6.2 mi NW 8.1 mph - N/A Rain Light Rain Showers
3:00 PM 78 °F 72 °F 77% 29.96 in 11 mi North 10.4 mph - - Rain Light Rain Showers
3:00 PM 77.0 °F 71.6 °F 83% 29.95 in 6.2 mi North 10.4 mph - N/A   Mostly Cloudy
4:00 PM 77.0 °F 71.6 °F 83% 29.96 in 6.2 mi North 12.7 mph - N/A   Mostly Cloudy
5:00 PM 77.0 °F 71.6 °F 83% 29.96 in 6.2 mi North 10.4 mph - N/A   Mostly Cloudy
6:00 PM 75 °F 71 °F 83% 29.98 in 12 mi North 10.4 mph - -   Partly Cloudy
6:00 PM 75.2 °F 71.6 °F 89% 29.97 in 6.2 mi North 10.4 mph - N/A   Mostly Cloudy
9:00 PM 74 °F 70 °F 83% 30.05 in 12 mi NNE 5.8 mph - -   Mostly Cloudy